Regional Weather Roundup
Issued by NWS

Home | Current Version | Previous Version | Text Only | Print | Product List | Glossary Off
Versions: 1 2 3 4 5 6 7 8 9 10 11 12 13 14 15 16 17 18 19 20 21 22 23 24 25 26 27 28 29 30 31 32 33 34 35 36 37 38 39 40 41 42 43 44 45 46 47 48 49 50

016
ASUS44 KJAN 291803
RWRMS

MISSISSIPPI HOURLY WEATHER ROUNDUP
NATIONAL WEATHER SERVICE JACKSON MS
100 PM CDT SUN MAR 29 2015

NOTE: "FAIR: INDICATES FEW OR NO CLOUDS BELOW 12,000 FEET WITH NO
SIGNIFICANT WEATHER AND/OR OBSTRUCTIONS TO VISIBILITY.

MSZ001>002-007>008-010>013-018>021-025>028-034>036-291900-
NORTHWEST MISSISSIPPI

CITY           SKY/WX    TMP DP  RH WIND       PRES   REMARKS
CLARKSDALE     CLOUDY    57  45  62 S20       30.19F
CLEVELAND      FAIR      62  50  64 S15       30.18F
GREENWOOD      PTSUNNY   66  44  45 S15       30.21F
6HR MIN TEMP:  45; 6HR MAX TEMP:  66;

GREENVILLE     SUNNY     65  51  60 S17       30.17F
6HR MIN TEMP:  45; 6HR MAX TEMP:  65;

OLIVE BRANCH   CLOUDY    54  37  54 S12       30.18F
OXFORD           N/A     54  34  47 SE12      30.24F
TUNICA         MOCLDY    55  43  62 S15G23    30.18F
$$

MSZ003>006-009-014>017-022>024-029>033-037>039-291900-
NORTHEAST MISSISSIPPI

CITY           SKY/WX    TMP DP  RH WIND       PRES   REMARKS
COLUMBUS AFB   PTSUNNY   57  31  37 SE8G17    30.28F
6HR MIN TEMP:  40; 6HR MAX TEMP:  57; 6HR PCP: TRACE;

CORINTH        CLOUDY    54  28  37 S12G17    30.25F
GOLDN TRIANGLE PTSUNNY   57  28  33 S12       30.28F
STARKVILLE     MOCLDY    59  37  44 SE12G17   30.27F
TUPELO         CLOUDY    55  31  39 S18       30.26F
6HR MIN TEMP:  38; 6HR MAX TEMP:  55;

$$

MSZ040-058-291900-
CENTRAL MISSISSIPPI

CITY           SKY/WX    TMP DP  RH WIND       PRES   REMARKS
JACKSON INTL   SUNNY     69  48  47 S13       30.23F
6HR MIN TEMP:  44; 6HR MAX TEMP:  69;

JACKSON HAWKNS SUNNY     69  48  47 S13       30.23F
6HR MIN TEMP:  44; 6HR MAX TEMP:  69;

MERIDIAN KEY   MOSUNNY   66  40  38 SE10      30.28F
6HR MIN TEMP:  44; 6HR MAX TEMP:  66;

MERIDIAN NAS   NOT AVBL
RAYMOND        FAIR      70  64  83 S12       30.21F
VICKSBURG      SUNNY     70  52  52 S15G22    30.21F
6HR MIN TEMP:  46; 6HR MAX TEMP:  70;

$$

MSZ059>079-291900-
SOUTH MISSISSIPPI

CITY           SKY/WX    TMP DP  RH WIND       PRES   REMARKS
BROOKHAVEN     FAIR      72  55  56 SE9G16    30.26F
HATTIESBURG    PTSUNNY   69  50  50 S13G18    30.29F
6HR MIN TEMP:  38; 6HR MAX TEMP:  70;

MCCOMB         SUNNY     73  56  54 S17G24    30.25F
6HR MIN TEMP:  44; 6HR MAX TEMP:  73;

NATCHEZ        MOSUNNY   75  55  50 S14G24    30.22F
6HR MIN TEMP:  48; 6HR MAX TEMP:  75;

PINE BELT      CLOUDY    68  46  45 S10       30.29F
6HR MIN TEMP:  39; 6HR MAX TEMP:  68;

$$

MSZ080>082-291900-
COASTAL MISSISSIPPI

CITY           SKY/WX    TMP DP  RH WIND       PRES   REMARKS
BAY ST LOUIS   PTSUNNY   68  52  56 S14G23    30.30F
BILOXI         SUNNY     68  55  64 SE16      30.31F
6HR MIN TEMP:  46; 6HR MAX TEMP:  68;

PASCAGOULA     PTSUNNY   67  53  61 SE15G22   30.32F
6HR MIN TEMP:  42; 6HR MAX TEMP:  68;

GULFPORT       MOSUNNY   67  55  65 SE20      30.31F
6HR MIN TEMP:  46; 6HR MAX TEMP:  67;

$$



USA.gov is the U.S. government's official web portal to all federal, state and local government web resources and services.